Atlantic - Newfoundland: Past 24 Hour Conditions

 

J.A. Douglas McCurdy Sydney Airport

04:00 AM ADT 30 July 2014
This table is a summary of hourly weather conditions for the past 24 hours.
Date / Time
(ADT)
Wind(knots) Conditions Visibility(km) Pressure(kPa) Air tempC) Relative humidity(%) Dew pointC) Humidex
30 July 2014
4:00 SSW 6 Fog 1 101.7 19 98 19 *
3:00 SSW 6 Fog 2 101.7 19 98 19 *
2:00 S 8 Fog 10 101.7 19 96 19 *
1:00 S 8 Fog 8 101.6 20 95 19 *
0:00 S 10 Fog 8 101.7 20 95 19 27
29 July 2014
23:00 S 10 Fog 8 101.6 20 95 20 28
22:00 S 9 Fog 8 101.6 21 93 20 28
21:00 SSW 8 Fog 8 101.6 22 91 20 29
20:00 SSW 8 Fog 8 101.5 22 90 21 30
19:00 SSW 9 gust 18 Fog 8 101.5 23 87 21 32
18:00 SSW 14 gust 22 Cloudy 13 101.4 24 81 21 33
17:00 SSW 11 gust 23 Cloudy 16 101.3 25 80 21 33
16:00 SSW 12 gust 26 Cloudy 16 101.3 26 79 22 34
15:00 SSW 13 gust 18 Cloudy 16 101.3 25 77 20 33
14:00 SSW 14 gust 21 Cloudy 16 101.3 24 83 21 33
13:00 SSW 9 gust 17 Haze 6 101.3 23 85 20 30
12:00 S 14 gust 20 Cloudy 24 101.3 24 77 20 31
11:00 SSW 15 gust 23 Cloudy 24 101.2 25 77 20 32
10:00 SSW 14 gust 21 Mostly Cloudy 24 101.2 24 77 20 31
9:00 S 13 gust 20 Partly Cloudy 16 101.2 22 88 20 30
8:00 SSW 12 gust 24 Fog 6 101.1 22 93 20 29
7:00 S 15 gust 20 Fog 2 101.1 21 96 20 29
6:00 S 12 gust 18 Fog 2 101.1 21 96 20 29
5:00 S 12 gust 20 Light Rainshower 3 101.0 21 96 20 28
4:00 S 13 gust 22 Light Rain 2 101.0 21 96 20 28
 
Map of Atlantic - Newfoundland marine weather areas Southwestern Grand Banks - 44138 Banquereau - 44139 Tail of the Bank - 44140 Nickerson Bank - 44251 Northeast Burgeo Bank - 44255 Blanc-Sablon Airport Cap Whittle Chevery Natashquan Airport Heath Point Miscou Island Grand Étang Ingonish Beach North Mountain St.Paul Island J.A. Douglas McCurdy Sydney Airport Charlottetown Airport East Point North Cape Argentia Bonavista Burgeo Cape Race Corner Brook Daniel's Harbour Englee Ferolle Point La Scie Port aux Basques Rocky Harbour Sagona Island St. Anthony Airport St. John's Int'l Airport St. Lawrence Stephenville Airport Twillingate Winterland Wreckhouse Cartwright Airport Mary's Harbour Grates Cove Pool's Island Marticot Island Long Pond Îles de la Madeleine Airport
Legend: buoyBuoy land stationLand Station